• In United Kingdom
  • List of Countries
  • For 7 days
  • Water Temperature
  • Satellite Maps
  • Weather Map
  • Weather Widgets
  • user-avatar
    Login

    Hourly Weather Senaki

    Today, 20 September, Wednesday

    Time Temperature Precipitation Wind Pressure Humidity
    00:00 +26°C° 0 mm 3 mps 759 mmHg 39%
    01:00 +26°C° 0 mm 3 mps 759 mmHg 37%
    02:00 +26°C° 0 mm 3 mps 759 mmHg 35%
    03:00 +27°C° 0 mm 3 mps 759 mmHg 30%
    04:00 +26°C° 0 mm 3 mps 759 mmHg 31%
    05:00 +26°C° 0 mm 3 mps 759 mmHg 31%
    06:00 +26°C° 0 mm 3 mps 759 mmHg 31%
    07:00 +28°C° 0 mm 3 mps 759 mmHg 32%
    08:00 +30°C° 0 mm 3 mps 758 mmHg 34%
    09:00 +33°C° 0 mm 3 mps 758 mmHg 33%
    10:00 +35°C° 0 mm 3 mps 758 mmHg 31%
    11:00 +36°C° 0 mm 3 mps 758 mmHg 28%
    12:00 +38°C° 0 mm 2 mps 758 mmHg 26%
    13:00 +38°C° 0 mm 2 mps 757 mmHg 26%
    14:00 +38°C° 0 mm 2 mps 757 mmHg 26%
    15:00 +37°C° 0 mm 1 mps 757 mmHg 26%
    16:00 +35°C° 0 mm 1 mps 757 mmHg 33%
    17:00 +32°C° 0 mm 1 mps 757 mmHg 39%
    18:00 +30°C° 0 mm 1 mps 757 mmHg 46%
    19:00 +29°C° 0 mm 1 mps 758 mmHg 44%
    20:00 +28°C° 0 mm 2 mps 758 mmHg 43%
    21:00 +27°C° 0 mm 2 mps 758 mmHg 41%
    22:00 +27°C° 0 mm 2 mps 758 mmHg 40%
    23:00 +27°C° 0 mm 2 mps 758 mmHg 39%

    Tomorrow, 21 September, Thursday

    Time Temperature Precipitation Wind Pressure Humidity
    00:00 +26°C° 0 mm 2 mps 758 mmHg 37%
    01:00 +26°C° 0 mm 3 mps 758 mmHg 36%
    02:00 +26°C° 0 mm 3 mps 758 mmHg 35%
    03:00 +26°C° 0 mm 3 mps 758 mmHg 33%
    04:00 +26°C° 0 mm 3 mps 758 mmHg 32%
    05:00 +26°C° 0 mm 3 mps 758 mmHg 31%
    06:00 +26°C° 0 mm 3 mps 758 mmHg 30%
    07:00 +28°C° 0 mm 3 mps 758 mmHg 31%
    08:00 +30°C° 0 mm 3 mps 757 mmHg 32%
    09:00 +32°C° 0 mm 2 mps 757 mmHg 33%
    10:00 +35°C° 0 mm 2 mps 756 mmHg 30%
    11:00 +37°C° 0 mm 2 mps 756 mmHg 27%
    12:00 +39°C° 0 mm 2 mps 756 mmHg 24%
    13:00 +39°C° 0 mm 2 mps 756 mmHg 24%
    14:00 +39°C° 0 mm 2 mps 755 mmHg 25%
    15:00 +39°C° 0 mm 2 mps 755 mmHg 25%
    16:00 +37°C° 0 mm 2 mps 755 mmHg 32%
    17:00 +34°C° 0 mm 2 mps 755 mmHg 38%
    18:00 +31°C° 0 mm 2 mps 755 mmHg 45%
    19:00 +30°C° 0 mm 2 mps 755 mmHg 43%
    20:00 +30°C° 0 mm 2 mps 756 mmHg 42%
    21:00 +29°C° 0 mm 2 mps 756 mmHg 40%
    22:00 +28°C° 0 mm 2 mps 756 mmHg 41%
    23:00 +28°C° 0 mm 2 mps 756 mmHg 42%

    Day after tomorrow, 22 September, Friday

    Time Temperature Precipitation Wind Pressure Humidity
    00:00 +27°C° 0 mm 2 mps 756 mmHg 42%
    01:00 +27°C° 0 mm 2 mps 756 mmHg 41%
    02:00 +26°C° 0 mm 2 mps 756 mmHg 40%
    03:00 +26°C° 0 mm 2 mps 756 mmHg 39%
    04:00 +26°C° 0 mm 3 mps 756 mmHg 39%
    05:00 +26°C° 0 mm 3 mps 756 mmHg 39%
    06:00 +26°C° 0 mm 3 mps 756 mmHg 39%
    07:00 +28°C° 0.1 mm 2 mps 756 mmHg 38%
    08:00 +30°C° 0.1 mm 2 mps 755 mmHg 37%
    09:00 +32°C° 0.1 mm 2 mps 755 mmHg 36%
    10:00 +35°C° 0 mm 2 mps 755 mmHg 33%
    11:00 +36°C° 0 mm 2 mps 755 mmHg 30%
    12:00 +38°C° 0 mm 2 mps 754 mmHg 27%
    13:00 +37°C° 0 mm 2 mps 754 mmHg 28%
    14:00 +37°C° 0 mm 2 mps 754 mmHg 29%
    15:00 +37°C° 0 mm 3 mps 754 mmHg 31%
    16:00 +34°C° 0 mm 2 mps 755 mmHg 44%
    17:00 +30°C° 0 mm 2 mps 755 mmHg 57%
    18:00 +27°C° 0 mm 2 mps 756 mmHg 70%
    19:00 +26°C° 0 mm 2 mps 757 mmHg 74%
    20:00 +25°C° 0 mm 2 mps 757 mmHg 79%
    21:00 +24°C° 0 mm 1 mps 758 mmHg 84%
    22:00 +24°C° 0 mm 1 mps 758 mmHg 84%
    23:00 +23°C° 0 mm 1 mps 759 mmHg 85%

    23 September, Saturday

    Time Temperature Precipitation Wind Pressure Humidity
    00:00 +23°C° 0 mm 1 mps 759 mmHg 86%
    01:00 +23°C° 0.1 mm 1 mps 759 mmHg 85%
    02:00 +23°C° 0.1 mm 1 mps 759 mmHg 84%
    03:00 +23°C° 0.1 mm 1 mps 759 mmHg 83%
    04:00 +23°C° 0.1 mm 1 mps 759 mmHg 81%
    05:00 +23°C° 0.1 mm 1 mps 759 mmHg 79%
    06:00 +22°C° 0.1 mm 1 mps 760 mmHg 76%
    07:00 +24°C° 0.3 mm 1 mps 759 mmHg 71%
    08:00 +26°C° 0.3 mm 1 mps 759 mmHg 66%
    09:00 +28°C° 0.3 mm 1 mps 759 mmHg 61%
    10:00 +28°C° 0.7 mm 2 mps 759 mmHg 60%
    11:00 +29°C° 0.7 mm 2 mps 759 mmHg 58%
    12:00 +30°C° 0.7 mm 3 mps 759 mmHg 57%
    13:00 +29°C° 0.2 mm 3 mps 759 mmHg 61%
    14:00 +29°C° 0.2 mm 3 mps 759 mmHg 64%
    15:00 +28°C° 0.2 mm 3 mps 759 mmHg 68%
    16:00 +27°C° 0.2 mm 3 mps 760 mmHg 75%
    17:00 +26°C° 0.2 mm 2 mps 760 mmHg 81%
    18:00 +24°C° 0.2 mm 2 mps 761 mmHg 88%
    19:00 +24°C° 0.1 mm 2 mps 761 mmHg 90%
    20:00 +23°C° 0.1 mm 2 mps 762 mmHg 92%
    21:00 +23°C° 0.1 mm 1 mps 762 mmHg 94%
    22:00 +22°C° 0.3 mm 1 mps 762 mmHg 94%
    23:00 +22°C° 0.3 mm 1 mps 763 mmHg 94%

    24 September, Sunday

    Time Temperature Precipitation Wind Pressure Humidity
    00:00 +22°C° 0.3 mm 1 mps 763 mmHg 94%
    01:00 +22°C° 0.1 mm 1 mps 763 mmHg 93%
    02:00 +21°C° 0.1 mm 1 mps 763 mmHg 92%
    03:00 +20°C° 0.1 mm 2 mps 763 mmHg 91%
    04:00 +20°C° 0 mm 2 mps 763 mmHg 89%
    05:00 +20°C° 0 mm 2 mps 763 mmHg 86%
    06:00 +19°C° 0 mm 2 mps 763 mmHg 84%
    07:00 +23°C° 0 mm 1 mps 763 mmHg 75%
    08:00 +25°C° 0 mm 1 mps 762 mmHg 66%
    09:00 +27°C° 0 mm 1 mps 762 mmHg 57%
    10:00 +29°C° 0 mm 1 mps 762 mmHg 53%
    11:00 +30°C° 0 mm 1 mps 761 mmHg 48%
    12:00 +31°C° 0 mm 1 mps 761 mmHg 43%
    13:00 +31°C° 0 mm 2 mps 761 mmHg 45%
    14:00 +31°C° 0 mm 2 mps 760 mmHg 47%
    15:00 +31°C° 0 mm 2 mps 760 mmHg 48%
    16:00 +29°C° 0 mm 2 mps 760 mmHg 60%
    17:00 +27°C° 0 mm 1 mps 761 mmHg 72%
    18:00 +24°C° 0 mm 1 mps 761 mmHg 84%
    19:00 +24°C° 0 mm 1 mps 761 mmHg 82%
    20:00 +23°C° 0 mm 1 mps 762 mmHg 80%
    21:00 +23°C° 0 mm 1 mps 762 mmHg 78%
    22:00 +23°C° 0 mm 1 mps 762 mmHg 74%
    23:00 +22°C° 0 mm 1 mps 762 mmHg 69%

    25 September, Monday

    Time Temperature Precipitation Wind Pressure Humidity
    00:00 +22°C° 0 mm 1 mps 762 mmHg 65%
    01:00 +22°C° 0 mm 1 mps 762 mmHg 61%
    02:00 +22°C° 0 mm 1 mps 762 mmHg 57%
    03:00 +21°C° 0 mm 2 mps 762 mmHg 53%
    04:00 +20°C° 0 mm 2 mps 762 mmHg 51%
    05:00 +20°C° 0 mm 2 mps 762 mmHg 50%
    06:00 +20°C° 0 mm 2 mps 762 mmHg 48%
    07:00 +23°C° 0 mm 2 mps 762 mmHg 44%
    08:00 +26°C° 0 mm 2 mps 762 mmHg 41%
    09:00 +28°C° 0 mm 1 mps 762 mmHg 37%
    10:00 +30°C° 0 mm 2 mps 762 mmHg 34%
    11:00 +32°C° 0 mm 2 mps 761 mmHg 31%
    12:00 +34°C° 0 mm 2 mps 761 mmHg 27%
    13:00 +35°C° 0 mm 2 mps 761 mmHg 27%
    14:00 +35°C° 0 mm 2 mps 761 mmHg 28%
    15:00 +35°C° 0 mm 2 mps 760 mmHg 28%
    16:00 +31°C° 0 mm 2 mps 761 mmHg 35%
    17:00 +29°C° 0 mm 2 mps 761 mmHg 41%
    18:00 +26°C° 0 mm 2 mps 761 mmHg 48%
    19:00 +26°C° 0 mm 2 mps 761 mmHg 45%
    20:00 +25°C° 0 mm 2 mps 762 mmHg 42%
    21:00 +25°C° 0 mm 2 mps 762 mmHg 39%
    22:00 +25°C° 0 mm 2 mps 762 mmHg 37%
    23:00 +25°C° 0 mm 3 mps 762 mmHg 34%
    Show more